If you wish to contribute or participate in the discussions about articles you are invited to join SKYbrary as a registered user

 Actions

Rouen Airport

From SKYbrary Wiki

LFOP
Airport
ICAO: LFOP – IATA: URO
Summary
Name Rouen Airport
Region Europe
Territory France FR.gif
Location , Haute-Normandie
Serving Rouen
Elevation 156.058 m
512 ft
512 ft156.058 m
Type medium airport
Coordinates 49° 23' 3.02" N, 1° 10' 29.28" E
Runways
Designator Length Width Surface ROPS
4/22 1700 m5,577.428 ft
45 m147.638 ft
ASP yes/yes
5/23 0 m0 ft
0 m0 ft
UNK /


METAR
Observation LFOP 110630Z AUTO 23005KT 9999 BKN015 BKN025 BKN030 06/06 Q1010 TEMPO BKN008
Station Rouen
Date/Time 11 December 2019 06:30:00
Wind direction 230°
Wind speed 05 kts
Lowest cloud amount broken clouds
Temperature 6°C
Dew point 6°C
Humidity 100%
QNH 1010 hPa
Weather condition n/a